Header for Extended Forecast Station List Page

Search by: ID | Name | Date | Parm | Value | Avg | % Avg
Sort by: ID | Name | Date | Parm | Value | Avg | % Avg

Enter search or view all records.

Click on id for station plot
#IDNameDateParmValueAvg% Avg
0BULO3BULLY CREEK-BULLY CREEK DAM01-22-2019INFLOW (KAF)4946
1MACI1BIG LOST-MACKAY RESERVOIR NEAR MACKAY01-22-2019INFLOW (KAF)3632113
2RIDI1WILLOW CREEK-RIRIE DAM01-22-2019INFLOW (KAF)313589
3HWRI1BIG LOST-AT HOWELL RANCH NEAR CHILLY01-22-2019DISCHARGE (KAF)284168
4MYKO3MCKAY CREEK-NEAR PILOT ROCK01-22-2019DISCHARGE (KAF)374190
5LWRI1LITTLE WOOD-LITTLE WOOD DAM01-22-2019INFLOW (KAF)294663
6BERO3MALHEUR-AGENCY VALLEY DAM01-22-2019INFLOW (KAF)254952
7DEDI1DEADWOOD-NEAR LOWMAN01-22-2019INFLOW (KAF)425478
8BUDW1BUMPING-BUMPING LAKE DAM01-22-2019INFLOW (KAF)566193
9VALO3MALHEUR-NEAR VALE01-22-2019DISCHARGE (KAF)606296
10ARDW1ENTIAT-NEAR ARDENVOIR01-22-2019DISCHARGE (KAF)586688
11DLGM8CLARK FORK-AT DEER LODGE01-22-2019DISCHARGE (KAF)636892
12WRMO3MALHEUR-WARM SPRINGS DAM01-22-2019INFLOW (KAF)437657
13KADW1KACHESS-KACHESS DAM01-22-2019INFLOW (KAF)8577110
14KEDW1YAKIMA-KEECHELUS LAKE01-22-2019INFLOW (KAF)9481117
15GIBO3UMATILLA-NEAR GIBBON01-22-2019DISCHARGE (KAF)9482115
16HALI1BIG WOOD-AT HAILEY01-22-2019DISCHARGE (KAF)549060
17RCCM8ROCK CREEK-NEAR CLINTON01-22-2019DISCHARGE (KAF)709573
18PIHI1PORTNEUF-AT POCATELLO01-22-2019DISCHARGE (KAF)729873
19EASW1YAKIMA-AT EASTON01-22-2019DISCHARGE (KAF)8410085
20RILW1TIETON-RIMROCK LAKE NEAR RIMROCK01-22-2019INFLOW (KAF)8611277
21HOTI1BRUNEAU-NEAR HOT SPRINGS01-22-2019DISCHARGE (KAF)7111263
22TNAW1TEANAWAY-BELOW FORKS01-22-2019DISCHARGE (KAF)126116108
23SATI1ST MARIES-NEAR SANTA01-22-2019DISCHARGE (KAF)140137102
24IPDI1HENRYS FORK-ISLAND PARK DAM01-22-2019INFLOW (KAF)13914696
25MAGI1BIG WOOD-MAGIC DAM01-22-2019INFLOW (KAF)5614638
26TEAI1TETON-NEAR ST. ANTHONY01-22-2019DISCHARGE (KAF)13315387
27STRM8ST. REGIS-NEAR ST. REGIS01-22-2019DISCHARGE (KAF)10916765
28UMAO3UMATILLA-NEAR UMATILLA01-22-2019DISCHARGE (KAF)177177100
29CHEI1FALL RIVER-NEAR CHESTER01-22-2019DISCHARGE (KAF)186182102
30PDTO3UMATILLA-AT PENDLETON01-22-2019DISCHARGE (KAF)199196102
31CLUW1CLE ELUM-CLE ELUM LAKE01-22-2019INFLOW (KAF)226210108
32TCHW1WALLA WALLA-NEAR TOUCHET01-22-2019DISCHARGE (KAF)21121996
33CLFW1NACHES-NEAR CLIFFDEL01-22-2019DISCHARGE (KAF)17722977
34JLKW4SNAKE-JACKSON LAKE AT DAM01-22-2019INFLOW (KAF)19023182
35BIGI1BOISE-AT GLENWOOD BRIDGE01-22-2019DISCHARGE (KAF)308234132
36CSDI1NF PAYETTE-CASCADE DAM01-22-2019INFLOW (KAF)22025985
37NACW1NACHES-NEAR NACHES01-22-2019DISCHARGE (KAF)24627390
38ARAI1SF BOISE-ANDERSON RANCH DAM01-22-2019INFLOW (KAF)18928566
39HODO3HOOD-NEAR TUCKER BRIDGE01-22-2019DISCHARGE (KAF)26228791
40PATW1METHOW-NEAR PATEROS01-22-2019DISCHARGE (KAF)21031068
41OWYO3OWYHEE-OWYHEE DAM01-22-2019INFLOW (KAF)19933859
42PARI1BOISE-NEAR PARMA01-22-2019DISCHARGE (KAF)376348108
43BONM8BLACKFOOT-NEAR BONNER01-22-2019DISCHARGE (KAF)30535187
44UNDW1WHITE SALMON-NEAR UNDERWOOD01-22-2019DISCHARGE (KAF)29335283
45WSRI1WEISER-NEAR WEISER01-22-2019DISCHARGE (KAF)30537382
46CHDW1CHELAN-LAKE CHELAN DAM01-22-2019INFLOW (KAF)29838777
47PRTI1PRIEST-NEAR PRIEST RIVER01-22-2019DISCHARGE (KAF)40446387
48ANTI1HENRYS FORK-AT ST. ANTHONY01-22-2019DISCHARGE (KAF)47147699
49BITM8BITTERROOT-NEAR MISSOULA01-22-2019DISCHARGE (KAF)38647881
50JKSW4SNAKE-NEAR JACKSON01-22-2019DISCHARGE (KAF)45849792
51PITW1KLICKITAT-NEAR PITT01-22-2019DISCHARGE (KAF)34650169
52UMTW1YAKIMA-AT UMTANUM01-22-2019DISCHARGE (KAF)49750998
53MONO3NF JOHN DAY-AT MONUMENT01-22-2019DISCHARGE (KAF)32954061
54REXI1HENRYS FORK-AT REXBURG01-22-2019DISCHARGE (KAF)50254991
55WGCM8MF FLATHEAD-NEAR WEST GLACIER01-22-2019DISCHARGE (KAF)38255069
56FCFM8NF FLATHEAD-NEAR COLUMBIA FALLS01-22-2019DISCHARGE (KAF)40257969
57TONW1OKANOGAN-NEAR TONASKET01-22-2019DISCHARGE (KAF)46159977
58PARW1YAKIMA-NEAR PARKER01-22-2019DISCHARGE (KAF)48061878
59PESW1WENATCHEE-AT PESHASTIN01-22-2019DISCHARGE (KAF)60265991
60ALPW4SNAKE-NEAR ALPINE01-22-2019DISCHARGE (KAF)61367691
61ABOM8CLARK FORK-ABOVE MISSOULA01-22-2019DISCHARGE (KAF)56567983
62MILI1SNAKE-AT MILNER01-22-2019DISCHARGE (KAF)7976010
63EMMI1PAYETTE-NEAR EMMETT01-22-2019DISCHARGE (KAF)52779766
64SERO3JOHN DAY-AT SERVICE CK01-22-2019DISCHARGE (KAF)49079761
65HHWM8SF FLATHEAD-HUNGRY HORSE DAM01-22-2019INFLOW (KAF)60580675
66LAUW1KETTLE-AT LAURIER01-22-2019DISCHARGE (KAF)61281275
67KIOW1YAKIMA-AT KIONA01-22-2019DISCHARGE (KAF)71396474
68TRYO3GRANDE RONDE-TROY01-22-2019DISCHARGE (KAF)74597676
69PLDI1SF SNAKE-PALISADES DAM01-22-2019INFLOW (KAF)958112186
70BELM8CLARK FORK-BELOW MISSOULA01-22-2019DISCHARGE (KAF)951116482
71HEII1SNAKE-NEAR HEISE01-22-2019DISCHARGE (KAF)11951174102
72SNAI1SNAKE-AT BLACKFOOT01-22-2019DISCHARGE (KAF)1029118487
73BFTI1SNAKE-NEAR BLACKFOOT01-22-2019DISCHARGE (KAF)1013121384
74SIFI1SNAKE-AB EAGLE ROCK NR IDAHO FALLS01-22-2019DISCHARGE (KAF)1299131699
75SHYI1SNAKE-NEAR SHELLEY01-22-2019DISCHARGE (KAF)1206134790
76MODO3DESCHUTES-AT MOODY NR BIGGS01-22-2019DISCHARGE (KAF)1404159688
77SRGM8CLARK FORK-AT ST REGIS01-22-2019DISCHARGE (KAF)1346163682
78LYDM8KOOTENAI-LIBBY DAM01-22-2019INFLOW (KAF)1254172773
79DWRI1NF CLEARWATER-DWORSHAK DAM01-22-2019INFLOW (KAF)18491845100
80AFRI1SNAKE-AMERICAN FALLS RESERVOIR01-22-2019INFLOW (KAF)1588191583
81CFMM8FLATHEAD-AT COLUMBIA FALLS01-22-2019DISCHARGE (KAF)1374199869
82LEOI1KOOTENAI-AT LEONIA01-22-2019DISCHARGE (KAF)1699222876
83WHBI1SALMON-AT WHITEBIRD01-22-2019DISCHARGE (KAF)1665223774
84COEI1COEUR D ALENE-COEUR D ALENE LAKE01-22-2019INFLOW (KAF)2190240191
85KERM8FLATHEAD-KERR DAM01-22-2019INFLOW (KAF)1521257359
86ORFI1CLEARWATER-AT OROFINO01-22-2019DISCHARGE (KAF)2459259695
87SWAI1SNAKE-BELOW SWAN FALLS01-22-2019DISCHARGE (KAF)1756272564
88LLKW1SPOKANE-AT LONGLAKE01-22-2019INFLOW (KAF)2409284185
89SPDI1CLEARWATER-AT SPALDING01-22-2019DISCHARGE (KAF)3795447085
90WEII1SNAKE-AT WEISER01-22-2019DISCHARGE (KAF)3229494965
91NOXM8CLARK FORK-NOXON RAPIDS DAM01-22-2019INFLOW (KAF)3281519063
92BRNI1SNAKE-BROWNLEE DAM01-22-2019INFLOW (KAF)3576531167
93CABI1CLARK FORK-CABINET GORGE DAM01-22-2019INFLOW (KAF)3660544867
94ALFW1PEND OREILLE-ALBENI FALLS DAM01-22-2019INFLOW (KAF)4641664770
95ANAW1SNAKE-NEAR ANATONE01-22-2019DISCHARGE (KAF)5898950362
96LGDW1SNAKE-LOWER GRANITE DAM01-22-2019INFLOW (KAF)96931398469
97LGSW1SNAKE-LITTLE GOOSE DAM01-22-2019INFLOW (KAF)96931404069
98IHDW1SNAKE-ICE HARBOR DAM01-22-2019INFLOW (KAF)100201413571
99LMNW1SNAKE-LOWER MONUMENTAL DAM01-22-2019INFLOW (KAF)100201430670
100GCDW1COLUMBIA-GRAND COULEE DAM01-22-2019INFLOW (KAF)189772146188
101WANW1COLUMBIA-WANAPUM DAM01-22-2019INFLOW (KAF)208642455085
102CHJW1COLUMBIA-CHIEF JOSEPH DAM01-22-2019INFLOW (KAF)192752481078
103PRWW1COLUMBIA-PRIEST RAPIDS DAM01-22-2019INFLOW (KAF)208622483084
104WELW1COLUMBIA-WELLS DAM01-22-2019INFLOW (KAF)199312569778
105RRHW1COLUMBIA-ROCKY REACH DAM01-22-2019INFLOW (KAF)202682610478
106MCDW1COLUMBIA-MCNARY DAM01-22-2019INFLOW (KAF)316964128377
107JDAO3COLUMBIA-JOHN DAY DAM01-22-2019INFLOW (KAF)335994366577
108TDAO3COLUMBIA-THE DALLES DAM01-22-2019INFLOW (KAF)340304534475
109BONO3COLUMBIA-BONNEVILLE DAM01-22-2019INFLOW (KAF)349124811573
110BFEI1KOOTENAI-AT BONNERS FERRY01-22-2019STAGE (FT)MMM
111DRMM8CLARK FORK-NR DRUMMOND01-22-2019DISCHARGE (KAF)170MM
112HOPI1PEND OREILLE-PEND OREILLE LAKE NR HOPE01-22-2019LAKE ELEVATION (FT)MMM
113SPOW1SPOKANE-AT SPOKANE01-22-2019DISCHARGE (KAF)2040MM
114SJMI1ST JOE-AT ST MARIES01-22-2019STAGE (FT)MMM
115CIBW1COLUMBIA-AT INTL BOUNDARY01-22-2019DISCHARGE (KAF)15905MM
116LUCI1BOISE-LUCKY PEAK DAM01-22-2019INFLOW (KAF)647MM